Temp
27 26 26 25 25 25 25 25 26 26 26 25 24 23 25 25 25 25 25 24 24 25 25 25 25 25 25 25 25 25 25 25 24 26 26 24 24 24 24 24 23 24 24
28 27 26 26 25 25 25 26 26 26 25 25 25 25 25 25 25 25 25 25 25 25 25 26 26 26 26 25 25 25 25 25 24 24 25 26 25 25 25 25 24 23 23
28 28 28 26 26 26 26 26 25 26 25 25 25 25 25 25 25 25 24 25 25 25 26 26 26 26 26 25 25 25 25 25 25 24 24 24 25 24 24 23 23 23 22
28 28 28 27 27 27 26 26 25 25 25 25 25 25 24 25 25 25 25 25 25 25 26 26 26 26 26 25 25 25 24 25 25 25 25 25 25 25 24 23 22 22 22
27 28 28 27 27 27 26 26 26 25 25 25 25 24 24 24 24 25 25 25 25 25 25 26 26 26 26 26 25 25 24 24 24 24 24 25 25 25 24 24 24 23 23
26 27 27 27 27 26 26 26 26 25 25 24 24 24 24 24 25 26 26 26 26 26 26 25 25 25 26 26 26 25 25 24 24 23 23 24 24 25 25 25 24 24 22
26 26 26 26 26 26 26 25 25 25 25 24 24 24 24 24 25 26 26 26 25 25 25 25 24 25 26 25 24 24 24 24 24 23 22 23 23 23 24 24 24 24 23
27 26 26 26 26 25 25 24 24 24 24 24 24 24 24 25 25 25 25 25 24 24 24 24 24 24 24 24 23 22 22 22 22 23 22 23 23 23 23 23 23 23 23
27 27 26 26 26 26 25 25 24 24 23 24 24 24 24 25 25 25 25 25 24 24 24 24 24 24 23 23 22 22 21 21 21 21 22 22 22 22 23 23 22 22 21
27 27 27 26 26 26 25 25 25 25 24 24 24 24 24 25 25 25 24 23 24 25 25 25 24 24 23 22 21 19 18 19 18 18 19 20 20 20 22 22 22 21 21
26 26 27 26 26 25 25 25 25 25 25 25 25 25 25 25 25 24 22 23 24 25 25 25 23 22 21 20 19 18 18 17 17 17 16 17 18 19 21 22 23 23 21
24 25 25 26 26 25 25 25 25 25 25 25 25 25 25 23 22 21 21 22 22 23 23 23 21 21 20 19 18 18 18 17 17 16 17 17 18 19 21 22 22 21 21
24 24 24 24 25 25 25 25 25 25 25 25 25 25 24 22 21 20 20 21 22 22 21 21 21 20 19 19 18 17 18 17 16 17 17 17 18 19 20 21 21 21 21
24 24 24 25 25 25 24 25 24 25 25 26 26 24 24 23 21 21 20 20 20 21 21 20 20 20 19 19 18 17 16 16 16 16 16 17 18 19 19 20 19 20 20
24 24 24 23 24 22 20 19 20 19 20 22 25 25 25 23 22 22 21 20 20 20 20 21 21 21 20 19 17 16 16 15 15 15 15 16 16 17 18 19 19 20 19
23 24 25 25 25 24 20 18 19 20 20 21 23 22 22 21 23 22 21 21 21 21 21 21 22 21 20 18 18 17 17 16 16 15 15 15 16 16 16 18 18 18 18
22 22 23 24 25 24 22 20 16 17 17 18 19 22 21 21 22 22 22 22 21 21 20 21 22 22 21 19 18 18 17 17 16 16 16 16 16 16 16 17 17 17 17
21 22 23 24 25 26 26 24 22 18 17 17 18 19 19 19 20 21 21 21 20 20 21 21 23 22 21 20 19 18 18 18 17 17 17 17 17 17 16 17 16 16 16
22 22 23 25 25 25 25 25 25 24 22 19 17 17 18 19 19 20 20 20 20 20 20 22 23 23 22 21 19 19 18 19 18 19 18 18 18 18 18 18 17 16 16
22 23 23 24 26 26 25 24 24 24 22 20 19 18 17 17 17 18 19 19 19 20 23 23 23 22 22 21 21 20 20 20 20 19 20 19 19 19 19 19 18 17 17
21 23 24 24 25 25 25 24 23 23 22 22 22 20 19 18 18 19 19 19 20 21 23 23 23 22 22 21 22 22 23 23 22 22 22 22 21 21 21 20 20 19 18
21 23 24 25 25 26 25 23 22 22 22 23 22 22 20 19 20 20 20 21 22 22 24 23 23 23 22 22 22 22 22 22 22 21 21 22 22 22 22 22 22 21 20
21 22 24 24 25 25 24 23 22 22 23 23 23 20 20 19 21 22 22 23 23 23 24 23 23 23 23 22 22 22 22 21 21 21 21 21 21 21 21 21 21 21 20
21 23 23 23 25 23 23 23 23 22 22 22 22 21 20 20 21 22 23 24 25 24 24 23 23 23 21 21 20 20 20 20 20 19 19 19 19 20 20 20 20 19 18
22 23 22 22 24 23 22 22 21 21 20 21 21 20 20 21 22 22 24 24 25 24 23 21 21 21 21 20 19 19 18 18 18 18 18 18 17 18 18 19 18 17 16
23 24 24 24 24 22 20 20 20 20 20 20 20 20 20 21 22 24 24 23 21 20 20 18 17 17 17 17 17 16 16 16 16 16 16 16 16 16 16 16 16 16 15
Height
772 776 779 780 784 788 789 790 791 793 796 806 805 811 812 813 809 812 815 816 817 816 815 815 814 814 814 814 813 812 811 809 808 803 803 807 805 806 809 811 816 818 818
770 771 775 778 782 785 786 787 788 789 795 801 806 808 810 807 806 810 814 815 815 815 815 813 812 811 810 810 809 808 807 807 809 809 806 805 805 806 807 808 812 815 815
766 768 770 773 777 781 783 787 789 788 789 794 799 801 802 802 805 808 810 813 814 814 813 812 811 808 807 807 807 806 806 806 807 809 811 811 810 809 808 809 809 810 810
763 764 766 771 772 775 778 783 785 788 789 789 792 794 796 798 802 804 807 809 810 810 810 810 808 807 805 805 804 803 803 803 804 804 804 806 807 807 807 805 805 805 805
760 761 762 766 768 773 776 780 785 787 789 789 790 791 793 796 799 801 803 804 805 806 806 806 805 804 803 803 801 801 800 800 800 801 800 801 801 802 801 802 802 802 799
757 759 760 762 765 768 771 774 778 781 784 787 788 789 790 793 794 797 798 799 800 801 801 802 801 800 798 799 798 798 798 797 796 795 796 796 795 797 797 796 796 797 798
753 756 758 761 763 765 767 771 773 776 779 781 784 786 787 788 790 792 793 795 797 798 799 799 798 799 797 796 795 794 794 794 793 793 792 790 789 789 792 792 792 792 792
750 753 756 758 760 762 764 765 768 771 773 776 779 781 782 784 786 787 789 791 794 795 797 797 797 796 794 793 792 791 791 790 790 789 787 786 785 785 785 785 785 786 786
748 750 751 752 754 757 759 761 763 766 768 770 773 775 777 778 780 782 784 786 788 790 791 793 793 792 791 790 790 789 786 785 784 783 781 779 777 777 777 779 779 780 779
747 748 749 751 753 753 754 757 759 762 764 766 769 771 773 775 776 779 781 783 785 786 787 788 786 787 787 787 786 786 784 781 779 777 774 771 770 770 770 769 770 771 773
745 743 744 744 746 748 751 752 754 757 759 762 765 767 770 771 772 774 777 780 782 782 783 785 783 784 784 784 782 781 780 779 776 773 771 768 765 763 763 762 762 762 764
745 744 743 743 742 742 744 745 749 753 755 758 762 764 767 767 768 772 774 776 779 780 781 781 780 782 782 780 779 779 778 776 774 771 768 766 762 760 759 758 756 756 757
745 743 741 740 740 740 739 740 744 746 750 754 756 760 763 765 766 769 773 775 776 777 780 778 778 778 778 777 777 777 775 772 771 769 766 764 761 757 755 754 753 753 752
743 741 739 737 735 735 735 733 739 740 741 744 747 753 759 761 761 765 767 770 773 775 777 777 777 778 777 777 774 775 773 772 769 766 765 762 757 752 751 751 750 749 748
739 738 736 734 733 733 730 730 727 736 742 744 750 753 753 757 756 759 763 768 769 772 773 774 775 776 777 777 775 774 771 770 767 765 763 760 756 754 751 749 748 747 748
736 734 731 729 727 728 729 732 731 715 727 744 747 749 748 748 753 754 758 764 766 768 770 771 773 774 777 776 775 772 769 767 766 764 764 762 757 756 754 752 749 748 748
732 730 728 726 724 725 727 728 733 737 737 738 746 744 744 750 752 754 756 759 763 766 767 768 768 771 772 775 773 771 769 767 765 765 763 761 759 757 756 753 753 752 750
726 725 723 721 721 720 719 721 723 731 737 740 737 738 741 744 746 753 754 757 761 762 762 763 766 768 769 771 771 769 769 766 764 763 762 760 758 756 757 756 754 752 752
719 718 716 715 715 715 714 715 718 722 725 729 732 735 737 740 745 750 753 754 756 759 759 760 762 764 766 767 767 765 766 764 763 763 762 760 760 757 755 755 756 755 752
711 709 709 708 707 706 709 712 716 717 720 725 728 732 735 740 743 747 748 751 753 755 754 756 758 761 763 765 765 762 762 761 760 760 760 759 758 757 754 752 751 753 753
704 700 700 701 701 702 703 708 713 716 717 720 723 725 729 736 740 744 744 747 749 749 750 752 755 758 760 761 761 759 758 760 759 759 758 758 756 754 753 752 750 750 751
696 692 692 690 692 694 697 703 708 712 714 715 717 720 725 732 736 739 740 742 743 745 747 749 753 755 755 757 758 757 757 758 758 759 758 757 756 755 753 751 749 747 746
689 686 684 684 684 685 689 695 700 704 707 710 712 715 721 725 729 732 734 736 738 740 743 746 749 752 752 755 757 758 757 757 757 758 757 756 756 754 754 752 749 746 747
680 677 677 678 675 676 683 687 689 695 702 705 709 713 717 721 724 726 728 728 731 734 737 742 746 748 748 751 754 754 756 756 756 756 756 755 755 754 753 750 748 746 746
673 672 672 671 670 671 677 684 682 687 694 700 704 708 712 716 719 720 721 723 725 730 733 738 742 744 745 748 751 753 754 754 754 753 753 753 752 752 752 751 748 747 745
669 669 670 669 670 668 675 678 680 685 689 695 701 706 711 713 715 716 718 722 721 728 732 737 741 742 745 749 750 752 754 752 751 752 752 752 752 750 750 750 748 747 746
Wind_Speed
19 22 22 22 21 20 20 19 20 16 11 17 12 18 12 11 9 11 11 12 8 11 11 7 8 8 9 11 13 13 12 11 7 17 13 6 5 6 5 1 9 13 15
17 18 20 22 21 22 21 21 18 20 15 16 16 14 12 9 9 11 11 10 12 12 13 10 10 10 11 14 15 16 15 16 10 12 18 17 13 12 14 12 15 13 15
19 20 19 20 20 21 20 19 20 17 18 14 12 13 11 11 10 12 11 11 12 12 13 11 12 11 14 16 17 17 17 15 13 13 12 13 14 11 13 17 16 19 19
17 15 18 19 21 22 23 21 23 21 20 20 17 16 16 16 14 15 15 13 12 13 13 12 11 13 16 16 17 17 17 19 18 18 15 13 13 14 14 16 15 18 18
17 16 19 20 20 19 15 18 19 20 21 22 20 19 19 17 16 18 16 15 15 15 15 14 15 15 16 17 16 19 18 19 17 18 18 17 18 14 15 20 19 18 17
17 16 14 18 21 21 21 19 20 20 20 22 23 24 20 18 20 21 19 17 12 13 15 14 16 17 16 19 20 18 19 22 24 21 19 18 21 18 16 16 19 19 12
18 16 16 18 20 21 21 22 22 25 25 28 25 22 20 21 21 13 13 15 15 15 14 15 15 14 16 16 14 14 17 20 21 24 24 24 24 26 24 20 19 21 20
20 19 19 19 19 19 19 21 22 25 25 26 24 23 22 20 20 21 18 16 14 15 16 17 16 16 15 17 17 16 15 18 19 20 23 27 28 28 27 26 23 21 21
15 16 18 21 21 20 22 22 22 22 22 25 24 23 23 21 21 22 20 19 17 16 14 12 12 13 16 18 18 19 21 25 26 25 26 26 23 20 30 29 23 17 14
11 15 17 19 20 21 23 23 22 22 21 21 21 21 21 21 22 21 20 16 14 14 10 7 12 14 17 17 16 15 19 23 20 23 28 32 30 23 20 22 29 22 18
14 10 17 19 22 23 23 23 22 22 21 21 20 20 21 22 25 23 14 12 10 8 7 6 7 6 12 17 19 17 16 16 19 22 22 23 22 22 21 20 26 27 24
15 14 11 16 22 23 26 24 23 23 22 19 21 20 18 19 17 14 11 13 11 9 7 4 4 10 10 8 10 11 13 15 17 16 17 20 19 20 20 20 15 20 23
12 15 16 16 17 23 25 25 24 24 21 21 20 19 18 17 12 11 13 14 12 9 6 9 7 4 6 6 9 11 12 10 13 14 18 21 21 21 20 21 20 18 19
13 15 16 16 17 18 24 27 24 27 24 20 20 18 20 21 14 11 17 15 12 9 7 4 3 3 4 6 7 8 9 11 13 15 17 20 20 15 13 14 15 13 12
17 15 15 17 14 9 9 7 6 10 8 6 12 17 20 19 23 16 18 17 12 9 8 5 6 2 3 4 6 7 10 10 11 12 14 15 16 16 13 11 11 10 6
20 18 18 16 13 7 5 3 11 10 15 22 33 26 23 17 22 23 21 19 17 9 7 7 5 1 4 5 7 8 11 11 12 12 12 13 15 17 18 14 12 10 8
22 21 19 18 17 13 10 10 14 14 21 35 29 27 22 24 18 26 24 17 12 10 9 11 8 5 3 2 4 8 9 10 11 11 10 11 11 11 13 11 12 12 11
23 25 26 19 15 17 14 13 15 20 19 18 15 16 14 14 19 22 19 16 14 13 14 13 9 6 5 3 1 3 5 8 9 7 10 9 8 9 10 10 11 11 13
23 24 24 21 18 20 8 8 7 9 12 14 14 14 18 20 21 20 19 17 14 13 14 15 12 8 7 4 3 4 3 1 4 4 6 7 7 7 9 9 10 9 11
27 26 33 23 17 18 15 13 11 10 15 17 17 16 20 21 20 21 20 19 16 18 13 11 6 6 5 4 7 10 9 8 4 6 2 2 3 3 4 4 6 5 8
27 26 31 28 20 18 10 10 12 15 15 17 16 22 23 24 18 17 16 19 19 17 11 9 12 9 9 9 7 4 1 5 6 8 7 5 4 5 2 4 4 4 4
27 25 23 26 24 22 16 16 15 14 16 16 21 23 27 24 19 20 23 24 22 20 14 14 10 12 11 9 3 0 3 6 5 5 8 10 9 7 10 11 7 5 5
26 30 27 22 25 13 18 19 18 19 17 16 11 22 33 25 24 24 24 26 26 22 14 13 9 10 10 7 5 5 3 4 4 6 6 9 13 10 10 13 14 17 17
30 29 25 24 19 24 26 22 16 17 18 17 20 20 29 25 23 22 21 19 22 19 21 16 12 10 17 12 9 4 3 3 4 4 8 10 12 16 15 15 13 15 17
28 27 22 31 28 19 15 19 20 18 24 21 20 25 28 29 26 24 22 15 22 21 20 20 16 14 13 9 5 2 4 6 8 10 10 9 10 12 13 15 14 15 15
26 24 25 20 15 20 22 18 15 19 21 21 16 14 23 26 24 23 23 12 28 28 23 19 16 12 8 6 3 3 5 5 6 7 6 8 8 7 9 10 11 11 11
Wind_Direction
203 198 199 197 205 213 210 210 221 220 230 214 201 242 223 227 228 229 242 251 242 249 270 275 266 279 281 285 297 302 303 318 339 321 345 90 239 107 202 302 286 273 270
223 199 203 202 204 208 220 212 218 228 222 189 189 208 225 232 243 245 239 240 237 256 265 270 276 279 289 291 286 294 294 297 288 285 301 313 315 292 287 257 246 252 262
221 201 203 199 199 209 214 215 220 226 222 224 214 222 225 235 238 238 242 248 253 250 262 260 267 275 281 283 290 295 304 305 308 310 298 300 293 270 250 256 254 257 247
217 204 211 208 209 207 204 210 216 217 222 222 231 233 230 237 239 232 236 239 251 261 269 273 271 270 271 269 276 281 290 295 297 291 278 276 275 269 251 236 245 255 252
220 220 213 210 215 215 220 216 218 215 216 220 221 223 227 232 229 229 232 240 245 252 261 268 269 267 271 269 267 270 276 282 285 289 293 285 274 246 226 248 258 250 253
224 226 218 210 213 216 221 211 214 212 222 228 224 229 226 223 232 237 233 228 241 252 252 261 263 274 275 282 281 276 272 269 268 264 274 277 281 288 274 252 247 255 258
206 216 222 222 212 211 220 218 218 215 219 222 221 220 223 227 235 250 236 242 250 255 262 268 273 281 286 299 295 284 280 279 276 272 265 262 267 271 276 278 267 257 249
210 214 226 225 222 215 214 211 211 219 220 222 223 223 221 226 234 246 251 255 255 257 265 270 278 281 284 290 296 301 295 288 288 286 284 284 279 276 270 265 268 271 272
224 228 228 223 220 218 218 217 213 209 212 217 218 219 221 225 231 238 241 239 244 255 262 267 264 279 286 287 293 296 298 297 294 285 282 290 285 286 270 268 262 258 255
249 240 237 238 234 228 222 220 216 215 215 212 215 218 219 224 232 240 242 238 239 242 235 248 262 262 269 285 301 303 296 295 299 298 291 284 281 290 281 265 257 247 246
350 327 249 239 236 234 232 223 218 213 214 215 217 214 219 223 229 233 236 223 229 235 226 263 263 281 303 306 307 302 297 302 303 306 305 300 295 283 277 268 264 256 240
331 325 319 262 247 238 233 231 220 214 212 212 214 212 209 217 224 223 227 208 212 215 221 246 273 292 312 338 322 317 315 310 304 290 298 300 294 289 281 277 292 255 251
317 308 300 293 275 254 243 232 225 217 208 214 206 212 197 205 219 225 216 209 215 217 213 238 279 341 339 340 328 330 326 320 298 306 293 286 290 290 290 286 281 275 268
299 301 298 295 284 273 258 242 230 219 212 213 207 201 215 194 191 214 204 205 207 213 218 266 333 334 330 354 354 338 333 332 335 329 326 324 338 320 298 296 283 283 281
294 290 295 294 281 299 316 316 239 135 40 303 254 242 233 196 197 211 208 204 202 198 211 210 241 265 324 345 354 2 359 346 352 346 338 336 345 345 345 339 326 318 284
291 282 277 282 258 241 232 138 158 164 222 274 275 261 250 268 204 200 189 196 182 202 210 226 229 190 318 341 353 3 10 1 359 354 348 355 356 350 341 345 356 2 328
281 281 278 279 276 255 210 174 138 174 196 215 240 237 218 214 193 187 182 185 203 204 218 233 199 215 170 302 359 10 13 4 10 10 8 4 0 359 346 6 9 10 8
273 276 273 266 272 270 254 201 167 169 186 194 196 196 183 183 182 196 194 185 188 210 225 237 203 195 178 187 58 20 14 24 28 5 10 17 7 26 12 17 22 24 10
263 266 260 250 238 258 227 232 198 201 169 168 178 174 174 178 180 184 184 187 195 223 238 232 193 198 175 204 176 224 230 12 77 49 49 50 41 46 42 42 31 34 35
273 255 263 265 255 220 216 205 226 227 172 182 177 179 180 177 180 191 194 203 217 236 252 181 173 161 174 197 247 243 226 233 219 198 193 180 114 95 78 115 83 78 59
269 249 248 245 245 261 223 202 230 222 200 202 195 180 197 186 191 193 198 213 223 233 228 174 180 175 198 204 239 289 225 114 52 8 14 349 306 243 254 204 135 135 108
266 268 262 225 221 225 222 192 204 221 227 219 207 191 190 190 196 198 205 210 209 224 215 179 185 220 212 181 191 15 333 94 70 13 7 351 358 32 344 340 346 213 195
260 265 249 251 216 229 193 192 205 213 216 220 200 166 180 190 202 212 214 214 209 200 191 174 183 213 174 176 188 171 255 108 63 24 3 342 336 344 334 334 348 356 8
252 251 235 256 217 203 208 201 199 204 215 216 197 187 187 199 208 226 236 214 197 189 178 176 200 191 139 133 136 168 213 229 256 288 301 314 313 319 329 329 335 352 352
244 247 226 246 236 198 198 208 184 190 200 208 184 183 194 201 215 224 233 233 190 188 158 129 122 139 153 166 164 208 300 313 310 311 312 301 293 310 315 314 342 0 15
242 246 254 240 274 177 199 193 174 182 187 186 173 192 202 216 223 213 227 165 122 125 129 131 134 139 124 106 78 26 359 353 350 343 9 26 4 7 6 1 2 8 14